QPF
0.01 0.01 0.01 0.02 0.03 0.03 0.02 0.01 0.01 0.01 0.02 0.01 0.01 0.01 0.01 0.02 0.02 0.01 0.01 0.01 0.02 0.02 0.02 0.02 0.01 0.01 0.01 0.01 0.01 0.01 0.01 0.01 0.01 0.02 0.03 0.03 0.02 0.02 0.02 0.01 0.01 0.01 0.01 0.01 0.01 0.01 0.01 0.01 0.01
0.01 0.01 0.01 0.02 0.02 0.02 0.01 0.01 0.01 0.00 0.01 0.02 0.02 0.01 0.01 0.02 0.02 0.02 0.02 0.01 0.02 0.03 0.03 0.03 0.02 0.01 0.01 0.02 0.02 0.01 0.01 0.00 0.01 0.01 0.03 0.04 0.04 0.03 0.03 0.02 0.01 0.01 0.01 0.01 0.01 0.01 0.00 0.00 0.00
0.01 0.01 0.01 0.01 0.01 0.01 0.01 0.01 0.01 0.00 0.01 0.01 0.02 0.03 0.03 0.04 0.04 0.02 0.02 0.03 0.03 0.03 0.04 0.03 0.03 0.02 0.02 0.02 0.03 0.03 0.02 0.01 0.01 0.02 0.04 0.05 0.04 0.03 0.03 0.02 0.02 0.02 0.01 0.01 0.01 0.01 0.01 0.00 0.00
0.01 0.02 0.02 0.01 0.01 0.01 0.01 0.01 0.01 0.01 0.01 0.01 0.02 0.03 0.04 0.05 0.04 0.02 0.02 0.03 0.04 0.04 0.05 0.05 0.05 0.04 0.03 0.02 0.03 0.04 0.03 0.01 0.01 0.02 0.03 0.04 0.03 0.03 0.03 0.03 0.03 0.02 0.01 0.01 0.01 0.00 0.00 0.01 0.01
0.01 0.03 0.03 0.01 0.00 0.00 0.01 0.01 0.02 0.01 0.01 0.01 0.02 0.03 0.04 0.04 0.03 0.03 0.02 0.03 0.04 0.05 0.06 0.08 0.09 0.07 0.04 0.03 0.04 0.04 0.04 0.03 0.02 0.02 0.02 0.03 0.03 0.03 0.04 0.04 0.03 0.02 0.02 0.01 0.01 0.00 0.01 0.01 0.02
0.01 0.02 0.03 0.02 0.00 0.00 0.01 0.01 0.01 0.03 0.01 0.01 0.02 0.03 0.04 0.05 0.05 0.03 0.03 0.04 0.05 0.06 0.08 0.09 0.12 0.11 0.07 0.05 0.05 0.04 0.04 0.04 0.03 0.02 0.02 0.03 0.04 0.03 0.04 0.03 0.03 0.03 0.02 0.01 0.01 0.00 0.00 0.01 0.01
0.01 0.01 0.01 0.02 0.01 0.00 0.01 0.01 0.01 0.02 0.02 0.01 0.03 0.03 0.03 0.06 0.08 0.04 0.03 0.02 0.05 0.07 0.09 0.10 0.11 0.13 0.09 0.06 0.04 0.04 0.04 0.05 0.05 0.04 0.03 0.02 0.04 0.04 0.03 0.03 0.03 0.03 0.03 0.02 0.01 0.01 0.00 0.00 0.01
0.02 0.01 0.01 0.01 0.01 0.00 0.01 0.01 0.01 0.02 0.03 0.02 0.03 0.04 0.04 0.07 0.09 0.06 0.03 0.03 0.06 0.09 0.09 0.11 0.12 0.12 0.11 0.08 0.05 0.04 0.04 0.04 0.05 0.05 0.03 0.02 0.03 0.03 0.03 0.03 0.03 0.03 0.03 0.03 0.02 0.01 0.00 0.00 0.01
0.02 0.01 0.00 0.01 0.01 0.01 0.01 0.01 0.01 0.01 0.02 0.03 0.03 0.04 0.05 0.08 0.09 0.07 0.04 0.03 0.05 0.08 0.09 0.11 0.14 0.14 0.12 0.10 0.06 0.04 0.04 0.04 0.04 0.05 0.05 0.03 0.03 0.03 0.03 0.02 0.02 0.02 0.03 0.03 0.02 0.01 0.01 0.00 0.00
0.02 0.01 0.00 0.01 0.01 0.01 0.01 0.00 0.00 0.01 0.01 0.02 0.03 0.05 0.06 0.06 0.08 0.08 0.05 0.03 0.04 0.08 0.08 0.10 0.13 0.17 0.14 0.14 0.09 0.05 0.04 0.05 0.05 0.04 0.05 0.03 0.03 0.03 0.03 0.02 0.02 0.02 0.03 0.04 0.03 0.02 0.01 0.00 0.00
0.01 0.01 0.00 0.01 0.01 0.02 0.02 0.01 0.01 0.01 0.02 0.04 0.06 0.06 0.07 0.07 0.06 0.07 0.06 0.04 0.05 0.06 0.06 0.09 0.12 0.19 0.19 0.18 0.12 0.06 0.04 0.04 0.05 0.05 0.06 0.04 0.02 0.02 0.03 0.02 0.02 0.03 0.03 0.03 0.03 0.03 0.01 0.01 0.00
0.01 0.01 0.00 0.00 0.02 0.03 0.03 0.02 0.01 0.01 0.03 0.05 0.07 0.09 0.09 0.09 0.07 0.07 0.06 0.05 0.05 0.03 0.05 0.08 0.11 0.21 0.21 0.21 0.16 0.08 0.04 0.04 0.04 0.05 0.06 0.05 0.03 0.02 0.02 0.02 0.02 0.02 0.02 0.02 0.02 0.01 0.01 0.01 0.01
0.01 0.01 0.00 0.01 0.01 0.03 0.03 0.03 0.01 0.01 0.02 0.02 0.05 0.08 0.11 0.11 0.08 0.07 0.07 0.05 0.07 0.05 0.05 0.08 0.11 0.22 0.23 0.20 0.19 0.10 0.05 0.03 0.03 0.05 0.06 0.05 0.04 0.03 0.02 0.01 0.02 0.02 0.02 0.01 0.01 0.01 0.00 0.00 0.01
0.01 0.01 0.01 0.01 0.01 0.03 0.03 0.03 0.02 0.01 0.01 0.02 0.05 0.05 0.07 0.08 0.07 0.06 0.06 0.06 0.09 0.08 0.07 0.11 0.11 0.22 0.26 0.21 0.16 0.11 0.06 0.04 0.03 0.05 0.07 0.04 0.03 0.03 0.02 0.01 0.02 0.02 0.03 0.02 0.02 0.02 0.01 0.01 0.01
0.01 0.01 0.01 0.02 0.02 0.03 0.03 0.03 0.02 0.01 0.01 0.02 0.04 0.05 0.05 0.05 0.07 0.07 0.05 0.05 0.08 0.10 0.09 0.10 0.10 0.21 0.27 0.28 0.18 0.11 0.07 0.05 0.05 0.05 0.04 0.04 0.03 0.03 0.03 0.02 0.01 0.02 0.02 0.03 0.03 0.03 0.02 0.02 0.02
0.01 0.01 0.01 0.01 0.01 0.02 0.02 0.02 0.02 0.02 0.02 0.02 0.03 0.05 0.06 0.06 0.06 0.06 0.04 0.04 0.06 0.06 0.06 0.07 0.10 0.19 0.25 0.33 0.29 0.17 0.09 0.06 0.06 0.04 0.03 0.04 0.03 0.03 0.03 0.02 0.01 0.02 0.03 0.03 0.03 0.03 0.02 0.02 0.02
0.01 0.01 0.01 0.01 0.01 0.01 0.02 0.01 0.01 0.02 0.02 0.02 0.02 0.04 0.06 0.06 0.04 0.04 0.03 0.03 0.04 0.04 0.04 0.06 0.07 0.14 0.21 0.29 0.33 0.26 0.14 0.08 0.07 0.04 0.04 0.05 0.05 0.04 0.03 0.02 0.02 0.02 0.03 0.03 0.03 0.03 0.02 0.01 0.01
0.01 0.01 0.01 0.00 0.00 0.01 0.01 0.01 0.01 0.01 0.01 0.02 0.01 0.02 0.06 0.06 0.03 0.03 0.03 0.03 0.03 0.05 0.04 0.04 0.06 0.10 0.18 0.28 0.30 0.28 0.20 0.12 0.10 0.06 0.03 0.06 0.08 0.06 0.04 0.03 0.03 0.03 0.03 0.03 0.03 0.03 0.02 0.02 0.01
0.00 0.01 0.00 0.00 0.00 0.01 0.01 0.01 0.01 0.01 0.01 0.01 0.01 0.02 0.05 0.07 0.05 0.03 0.03 0.03 0.03 0.05 0.05 0.05 0.06 0.08 0.14 0.23 0.23 0.23 0.19 0.15 0.11 0.08 0.05 0.07 0.09 0.09 0.06 0.03 0.02 0.03 0.04 0.04 0.03 0.03 0.03 0.02 0.02
0.01 0.01 0.01 0.01 0.01 0.01 0.01 0.01 0.01 0.01 0.01 0.01 0.01 0.01 0.04 0.03 0.06 0.04 0.03 0.03 0.03 0.04 0.07 0.05 0.06 0.08 0.12 0.19 0.20 0.19 0.16 0.16 0.12 0.10 0.07 0.08 0.09 0.10 0.09 0.05 0.02 0.02 0.03 0.04 0.04 0.04 0.04 0.04 0.04
0.01 0.01 0.01 0.01 0.01 0.01 0.01 0.01 0.01 0.00 0.01 0.01 0.01 0.02 0.02 0.02 0.04 0.04 0.03 0.03 0.03 0.04 0.05 0.04 0.03 0.05 0.10 0.18 0.21 0.18 0.19 0.19 0.17 0.14 0.09 0.08 0.10 0.11 0.12 0.10 0.06 0.03 0.03 0.04 0.05 0.04 0.03 0.05 0.06
0.01 0.01 0.00 0.01 0.02 0.01 0.00 0.01 0.00 0.00 0.00 0.01 0.01 0.01 0.02 0.02 0.02 0.02 0.03 0.02 0.02 0.03 0.03 0.03 0.03 0.03 0.05 0.12 0.22 0.19 0.20 0.21 0.21 0.19 0.15 0.12 0.11 0.12 0.14 0.13 0.10 0.06 0.03 0.03 0.04 0.04 0.03 0.03 0.04
0.00 0.00 0.00 0.00 0.01 0.02 0.01 0.00 0.00 0.00 0.00 0.00 0.00 0.01 0.01 0.01 0.02 0.02 0.02 0.02 0.02 0.02 0.02 0.02 0.02 0.03 0.04 0.06 0.14 0.19 0.19 0.19 0.20 0.21 0.19 0.15 0.13 0.12 0.12 0.14 0.11 0.09 0.06 0.03 0.03 0.04 0.03 0.02 0.03
0.00 0.00 0.00 0.00 0.01 0.02 0.01 0.00 0.00 0.00 0.00 0.01 0.02 0.01 0.01 0.01 0.01 0.01 0.01 0.01 0.01 0.01 0.02 0.01 0.01 0.02 0.03 0.04 0.08 0.14 0.18 0.16 0.16 0.16 0.17 0.17 0.14 0.13 0.11 0.12 0.12 0.10 0.08 0.05 0.04 0.04 0.03 0.02 0.02
0.00 0.01 0.01 0.01 0.01 0.01 0.00 0.00 0.00 0.00 0.00 0.00 0.01 0.00 0.00 0.00 0.00 0.00 0.00 0.00 0.00 0.00 0.00 0.00 0.00 0.01 0.02 0.02 0.04 0.06 0.11 0.14 0.15 0.14 0.14 0.15 0.14 0.13 0.12 0.10 0.11 0.11 0.10 0.07 0.05 0.04 0.04 0.04 0.03
0.00 0.01 0.01 0.01 0.00 0.00 0.00 0.00 0.00 0.00 0.00 0.00 0.00 0.00 0.00 0.00 0.00 0.00 0.00 0.00 0.00 0.00 0.00 0.00 0.00 0.00 0.01 0.01 0.02 0.02 0.04 0.06 0.09 0.10 0.11 0.12 0.12 0.11 0.11 0.10 0.11 0.11 0.10 0.09 0.07 0.05 0.05 0.05 0.05
0.00 0.00 0.01 0.02 0.01 0.00 0.00 0.00 0.00 0.00 0.00 0.00 0.00 0.00 0.00 0.00 0.00 0.00 0.00 0.00 0.00 0.00 0.00 0.01 0.00 0.01 0.01 0.00 0.00 0.01 0.01 0.02 0.04 0.05 0.07 0.08 0.09 0.08 0.08 0.08 0.08 0.09 0.09 0.10 0.09 0.06 0.05 0.05 0.05
0.00 0.00 0.01 0.02 0.02 0.01 0.00 0.00 0.00 0.00 0.00 0.00 0.00 0.00 0.00 0.00 0.00 0.00 0.00 0.00 0.00 0.00 0.00 0.00 0.00 0.01 0.01 0.01 0.00 0.00 0.01 0.01 0.02 0.02 0.03 0.04 0.05 0.06 0.06 0.07 0.08 0.09 0.10 0.10 0.12 0.11 0.07 0.06 0.04
0.00 0.00 0.00 0.01 0.02 0.02 0.01 0.01 0.01 0.01 0.01 0.00 0.00 0.00 0.00 0.00 0.00 0.00 0.01 0.01 0.01 0.00 0.00 0.00 0.00 0.01 0.02 0.01 0.01 0.00 0.00 0.00 0.01 0.01 0.02 0.03 0.03 0.03 0.03 0.05 0.07 0.09 0.10 0.10 0.10 0.12 0.12 0.09 0.07
0.00 0.00 0.00 0.01 0.01 0.01 0.01 0.00 0.00 0.00 0.00 0.00 0.01 0.01 0.00 0.00 0.00 0.00 0.01 0.01 0.01 0.00 0.00 0.00 0.00 0.01 0.02 0.02 0.01 0.01 0.01 0.01 0.01 0.01 0.01 0.02 0.03 0.02 0.02 0.03 0.05 0.07 0.09 0.10 0.08 0.07 0.10 0.11 0.08
MSLP
1016.92 1017.11 1017.27 1017.33 1017.26 1017.04 1016.68 1016.22 1015.74 1015.31 1015.01 1014.87 1014.90 1015.07 1015.34 1015.63 1015.89 1016.05 1016.10 1016.06 1015.97 1015.87 1015.83 1015.88 1016.04 1016.30 1016.62 1016.96 1017.28 1017.54 1017.74 1017.87 1017.95 1018.02 1018.10 1018.21 1018.34 1018.48 1018.63 1018.75 1018.83 1018.87 1018.86 1018.83 1018.77 1018.71 1018.66 1018.63 1018.61
1017.23 1017.45 1017.58 1017.54 1017.32 1016.92 1016.37 1015.76 1015.17 1014.71 1014.42 1014.34 1014.46 1014.72 1015.05 1015.38 1015.62 1015.76 1015.77 1015.71 1015.62 1015.55 1015.57 1015.70 1015.94 1016.27 1016.65 1017.02 1017.35 1017.62 1017.81 1017.95 1018.05 1018.14 1018.24 1018.36 1018.50 1018.65 1018.77 1018.87 1018.92 1018.94 1018.92 1018.87 1018.82 1018.76 1018.71 1018.67 1018.64
1017.57 1017.81 1017.89 1017.76 1017.40 1016.84 1016.15 1015.43 1014.79 1014.33 1014.10 1014.10 1014.31 1014.63 1015.00 1015.31 1015.52 1015.59 1015.55 1015.45 1015.35 1015.32 1015.40 1015.60 1015.93 1016.32 1016.75 1017.14 1017.47 1017.72 1017.90 1018.02 1018.12 1018.22 1018.34 1018.47 1018.61 1018.75 1018.85 1018.92 1018.95 1018.94 1018.91 1018.86 1018.81 1018.77 1018.72 1018.68 1018.64
1017.89 1018.14 1018.17 1017.95 1017.47 1016.79 1016.01 1015.25 1014.61 1014.20 1014.06 1014.15 1014.43 1014.81 1015.17 1015.45 1015.58 1015.57 1015.46 1015.31 1015.21 1015.21 1015.35 1015.64 1016.03 1016.48 1016.93 1017.32 1017.62 1017.84 1017.98 1018.08 1018.17 1018.27 1018.39 1018.54 1018.68 1018.81 1018.90 1018.95 1018.95 1018.93 1018.90 1018.86 1018.82 1018.79 1018.75 1018.71 1018.67
1018.13 1018.36 1018.33 1018.03 1017.46 1016.71 1015.90 1015.15 1014.58 1014.26 1014.23 1014.43 1014.78 1015.18 1015.53 1015.74 1015.79 1015.68 1015.50 1015.32 1015.22 1015.25 1015.46 1015.81 1016.26 1016.74 1017.19 1017.54 1017.80 1017.95 1018.05 1018.11 1018.18 1018.28 1018.42 1018.58 1018.74 1018.87 1018.96 1018.99 1018.99 1018.96 1018.93 1018.90 1018.88 1018.87 1018.84 1018.80 1018.74
1018.21 1018.40 1018.30 1017.92 1017.30 1016.53 1015.74 1015.05 1014.59 1014.41 1014.51 1014.82 1015.24 1015.66 1015.97 1016.11 1016.07 1015.88 1015.64 1015.43 1015.34 1015.43 1015.69 1016.10 1016.59 1017.07 1017.49 1017.79 1017.98 1018.07 1018.10 1018.12 1018.18 1018.29 1018.45 1018.64 1018.82 1018.97 1019.07 1019.11 1019.10 1019.07 1019.04 1019.03 1019.02 1019.01 1019.00 1018.95 1018.87
1018.10 1018.20 1018.03 1017.58 1016.92 1016.16 1015.43 1014.86 1014.54 1014.52 1014.76 1015.18 1015.67 1016.10 1016.38 1016.46 1016.35 1016.10 1015.82 1015.61 1015.55 1015.69 1016.01 1016.46 1016.97 1017.44 1017.81 1018.04 1018.15 1018.15 1018.13 1018.12 1018.18 1018.31 1018.51 1018.74 1018.96 1019.14 1019.25 1019.29 1019.29 1019.26 1019.23 1019.22 1019.22 1019.22 1019.20 1019.15 1019.04
1017.77 1017.77 1017.51 1017.00 1016.33 1015.60 1014.96 1014.52 1014.36 1014.50 1014.89 1015.41 1015.96 1016.41 1016.67 1016.71 1016.55 1016.28 1016.00 1015.81 1015.80 1015.99 1016.36 1016.84 1017.35 1017.79 1018.10 1018.25 1018.27 1018.22 1018.15 1018.12 1018.19 1018.36 1018.61 1018.89 1019.15 1019.36 1019.49 1019.54 1019.53 1019.50 1019.47 1019.45 1019.45 1019.45 1019.43 1019.35 1019.22
1017.28 1017.16 1016.80 1016.24 1015.56 1014.89 1014.35 1014.05 1014.04 1014.33 1014.84 1015.46 1016.06 1016.53 1016.78 1016.81 1016.64 1016.37 1016.12 1015.99 1016.04 1016.29 1016.70 1017.20 1017.69 1018.08 1018.32 1018.40 1018.36 1018.25 1018.15 1018.13 1018.23 1018.45 1018.75 1019.07 1019.38 1019.62 1019.76 1019.81 1019.80 1019.75 1019.71 1019.68 1019.67 1019.67 1019.63 1019.54 1019.39
1016.71 1016.47 1016.02 1015.41 1014.74 1014.12 1013.69 1013.51 1013.63 1014.04 1014.65 1015.34 1015.97 1016.45 1016.71 1016.74 1016.60 1016.37 1016.19 1016.12 1016.24 1016.54 1016.99 1017.49 1017.95 1018.29 1018.46 1018.48 1018.39 1018.25 1018.15 1018.15 1018.28 1018.55 1018.90 1019.28 1019.62 1019.87 1020.02 1020.06 1020.03 1019.97 1019.92 1019.88 1019.86 1019.84 1019.79 1019.69 1019.52
1016.15 1015.80 1015.28 1014.64 1013.99 1013.44 1013.08 1013.01 1013.23 1013.72 1014.38 1015.09 1015.74 1016.22 1016.49 1016.55 1016.45 1016.29 1016.18 1016.20 1016.39 1016.74 1017.20 1017.69 1018.11 1018.39 1018.52 1018.49 1018.36 1018.22 1018.13 1018.17 1018.35 1018.67 1019.06 1019.47 1019.83 1020.09 1020.23 1020.26 1020.22 1020.15 1020.08 1020.03 1020.00 1019.97 1019.91 1019.80 1019.62
1015.69 1015.28 1014.71 1014.07 1013.45 1012.95 1012.66 1012.65 1012.93 1013.45 1014.11 1014.82 1015.45 1015.92 1016.19 1016.28 1016.24 1016.16 1016.14 1016.23 1016.48 1016.86 1017.33 1017.79 1018.17 1018.41 1018.49 1018.43 1018.30 1018.17 1018.12 1018.20 1018.43 1018.78 1019.21 1019.63 1019.99 1020.25 1020.39 1020.41 1020.36 1020.28 1020.20 1020.15 1020.11 1020.08 1020.02 1019.90 1019.71
1015.40 1014.95 1014.38 1013.76 1013.18 1012.74 1012.51 1012.53 1012.82 1013.32 1013.94 1014.59 1015.17 1015.61 1015.88 1015.99 1016.01 1016.01 1016.06 1016.22 1016.51 1016.92 1017.37 1017.80 1018.14 1018.34 1018.39 1018.33 1018.22 1018.12 1018.12 1018.25 1018.52 1018.90 1019.33 1019.76 1020.11 1020.36 1020.49 1020.50 1020.45 1020.38 1020.31 1020.27 1020.24 1020.20 1020.14 1020.01 1019.81
1015.28 1014.84 1014.30 1013.73 1013.22 1012.84 1012.65 1012.68 1012.93 1013.37 1013.91 1014.46 1014.96 1015.35 1015.59 1015.73 1015.79 1015.85 1015.96 1016.18 1016.50 1016.90 1017.32 1017.72 1018.02 1018.19 1018.25 1018.21 1018.14 1018.10 1018.15 1018.32 1018.63 1019.02 1019.45 1019.86 1020.19 1020.43 1020.54 1020.57 1020.54 1020.49 1020.44 1020.42 1020.40 1020.38 1020.30 1020.16 1019.95
1015.28 1014.88 1014.41 1013.93 1013.50 1013.18 1013.02 1013.04 1013.24 1013.58 1014.01 1014.44 1014.84 1015.15 1015.36 1015.50 1015.59 1015.70 1015.86 1016.10 1016.43 1016.81 1017.20 1017.56 1017.84 1018.01 1018.08 1018.09 1018.08 1018.11 1018.22 1018.44 1018.76 1019.15 1019.56 1019.94 1020.25 1020.47 1020.59 1020.63 1020.63 1020.62 1020.61 1020.62 1020.63 1020.60 1020.53 1020.37 1020.14
1015.33 1015.00 1014.63 1014.25 1013.91 1013.67 1013.54 1013.54 1013.67 1013.90 1014.19 1014.50 1014.78 1015.01 1015.18 1015.31 1015.42 1015.55 1015.74 1015.99 1016.31 1016.67 1017.03 1017.35 1017.61 1017.79 1017.91 1017.98 1018.05 1018.15 1018.33 1018.59 1018.93 1019.30 1019.68 1020.02 1020.30 1020.50 1020.62 1020.69 1020.73 1020.77 1020.82 1020.86 1020.89 1020.88 1020.80 1020.63 1020.38
1015.37 1015.12 1014.86 1014.59 1014.36 1014.19 1014.09 1014.07 1014.12 1014.24 1014.40 1014.57 1014.74 1014.89 1015.01 1015.13 1015.25 1015.41 1015.61 1015.86 1016.15 1016.48 1016.80 1017.11 1017.36 1017.57 1017.74 1017.89 1018.05 1018.24 1018.48 1018.78 1019.12 1019.47 1019.81 1020.10 1020.35 1020.52 1020.66 1020.75 1020.84 1020.93 1021.03 1021.11 1021.17 1021.17 1021.09 1020.91 1020.64
1015.34 1015.19 1015.04 1014.89 1014.77 1014.66 1014.59 1014.54 1014.53 1014.54 1014.57 1014.62 1014.69 1014.76 1014.85 1014.96 1015.09 1015.26 1015.46 1015.71 1015.98 1016.27 1016.56 1016.85 1017.11 1017.36 1017.59 1017.83 1018.08 1018.35 1018.66 1018.98 1019.31 1019.64 1019.93 1020.18 1020.38 1020.55 1020.68 1020.80 1020.93 1021.07 1021.21 1021.34 1021.42 1021.43 1021.36 1021.18 1020.92
1015.26 1015.20 1015.15 1015.12 1015.09 1015.05 1014.99 1014.91 1014.83 1014.74 1014.66 1014.61 1014.59 1014.61 1014.68 1014.79 1014.93 1015.12 1015.33 1015.56 1015.81 1016.07 1016.34 1016.61 1016.88 1017.17 1017.47 1017.78 1018.12 1018.47 1018.82 1019.17 1019.50 1019.79 1020.04 1020.24 1020.40 1020.55 1020.68 1020.83 1020.99 1021.16 1021.34 1021.49 1021.60 1021.63 1021.57 1021.42 1021.17
1015.16 1015.18 1015.23 1015.29 1015.34 1015.34 1015.29 1015.18 1015.02 1014.84 1014.67 1014.53 1014.45 1014.44 1014.50 1014.62 1014.79 1015.00 1015.22 1015.45 1015.68 1015.91 1016.15 1016.41 1016.69 1017.01 1017.36 1017.74 1018.15 1018.56 1018.95 1019.32 1019.64 1019.90 1020.11 1020.27 1020.40 1020.52 1020.65 1020.80 1020.98 1021.18 1021.38 1021.56 1021.68 1021.74 1021.70 1021.58 1021.39
1015.10 1015.19 1015.33 1015.47 1015.56 1015.59 1015.52 1015.36 1015.13 1014.87 1014.61 1014.40 1014.28 1014.25 1014.32 1014.48 1014.69 1014.93 1015.17 1015.41 1015.63 1015.83 1016.05 1016.29 1016.57 1016.90 1017.28 1017.71 1018.16 1018.61 1019.03 1019.41 1019.71 1019.95 1020.12 1020.25 1020.35 1020.46 1020.58 1020.73 1020.92 1021.13 1021.34 1021.52 1021.66 1021.74 1021.74 1021.67 1021.55
1015.14 1015.30 1015.50 1015.69 1015.81 1015.84 1015.73 1015.51 1015.20 1014.85 1014.52 1014.26 1014.11 1014.09 1014.19 1014.38 1014.64 1014.93 1015.20 1015.44 1015.66 1015.84 1016.03 1016.25 1016.51 1016.84 1017.23 1017.68 1018.15 1018.61 1019.05 1019.42 1019.72 1019.94 1020.09 1020.19 1020.28 1020.37 1020.49 1020.64 1020.82 1021.02 1021.23 1021.41 1021.56 1021.65 1021.69 1021.68 1021.63
1015.29 1015.52 1015.77 1015.99 1016.12 1016.11 1015.95 1015.66 1015.27 1014.84 1014.44 1014.14 1013.98 1013.97 1014.10 1014.35 1014.66 1014.99 1015.30 1015.56 1015.78 1015.95 1016.11 1016.30 1016.53 1016.84 1017.21 1017.65 1018.11 1018.58 1019.00 1019.37 1019.65 1019.86 1020.00 1020.10 1020.19 1020.27 1020.39 1020.53 1020.71 1020.90 1021.09 1021.26 1021.40 1021.50 1021.57 1021.61 1021.63
1015.54 1015.83 1016.12 1016.35 1016.46 1016.41 1016.19 1015.81 1015.34 1014.84 1014.39 1014.06 1013.90 1013.91 1014.08 1014.38 1014.75 1015.13 1015.47 1015.75 1015.96 1016.12 1016.26 1016.41 1016.61 1016.88 1017.22 1017.63 1018.07 1018.51 1018.91 1019.27 1019.54 1019.75 1019.89 1020.00 1020.09 1020.18 1020.30 1020.44 1020.60 1020.77 1020.94 1021.09 1021.21 1021.32 1021.40 1021.47 1021.55
1015.84 1016.18 1016.50 1016.72 1016.80 1016.69 1016.40 1015.96 1015.42 1014.86 1014.38 1014.04 1013.88 1013.92 1014.13 1014.47 1014.88 1015.30 1015.67 1015.97 1016.19 1016.33 1016.45 1016.57 1016.73 1016.95 1017.25 1017.61 1018.01 1018.42 1018.80 1019.13 1019.40 1019.61 1019.76 1019.89 1019.99 1020.11 1020.23 1020.37 1020.52 1020.67 1020.81 1020.93 1021.03 1021.11 1021.19 1021.27 1021.37
1016.10 1016.48 1016.81 1017.03 1017.07 1016.91 1016.56 1016.06 1015.48 1014.90 1014.41 1014.07 1013.93 1014.00 1014.24 1014.62 1015.06 1015.50 1015.88 1016.19 1016.40 1016.54 1016.63 1016.72 1016.85 1017.03 1017.29 1017.60 1017.96 1018.32 1018.68 1018.99 1019.26 1019.47 1019.64 1019.79 1019.92 1020.05 1020.19 1020.33 1020.47 1020.60 1020.71 1020.79 1020.85 1020.90 1020.96 1021.03 1021.12
1016.26 1016.66 1016.99 1017.18 1017.19 1016.99 1016.61 1016.09 1015.51 1014.94 1014.47 1014.16 1014.06 1014.15 1014.42 1014.81 1015.26 1015.70 1016.07 1016.36 1016.56 1016.68 1016.76 1016.83 1016.93 1017.09 1017.31 1017.59 1017.90 1018.24 1018.56 1018.86 1019.12 1019.34 1019.53 1019.70 1019.86 1020.01 1020.16 1020.31 1020.44 1020.55 1020.62 1020.67 1020.69 1020.70 1020.72 1020.75 1020.82
1016.26 1016.67 1016.98 1017.14 1017.12 1016.91 1016.54 1016.04 1015.49 1014.98 1014.58 1014.33 1014.27 1014.40 1014.68 1015.06 1015.48 1015.89 1016.23 1016.49 1016.66 1016.76 1016.82 1016.87 1016.96 1017.10 1017.30 1017.55 1017.85 1018.16 1018.47 1018.75 1019.01 1019.24 1019.44 1019.63 1019.81 1019.98 1020.15 1020.29 1020.41 1020.50 1020.55 1020.56 1020.55 1020.51 1020.48 1020.47 1020.48
1016.10 1016.48 1016.76 1016.90 1016.87 1016.67 1016.34 1015.91 1015.46 1015.05 1014.74 1014.58 1014.59 1014.75 1015.03 1015.38 1015.75 1016.09 1016.36 1016.56 1016.68 1016.75 1016.79 1016.83 1016.92 1017.06 1017.26 1017.51 1017.79 1018.09 1018.39 1018.68 1018.94 1019.17 1019.39 1019.59 1019.78 1019.96 1020.12 1020.27 1020.38 1020.45 1020.48 1020.46 1020.41 1020.34 1020.27 1020.21 1020.17
1015.81 1016.15 1016.39 1016.50 1016.48 1016.32 1016.06 1015.75 1015.43 1015.17 1015.00 1014.95 1015.03 1015.21 1015.48 1015.78 1016.07 1016.32 1016.50 1016.61 1016.66 1016.68 1016.69 1016.73 1016.82 1016.97 1017.18 1017.44 1017.74 1018.04 1018.35 1018.64 1018.90 1019.14 1019.36 1019.57 1019.76 1019.94 1020.10 1020.24 1020.34 1020.39 1020.39 1020.36 1020.28 1020.18 1020.08 1019.98 1019.89
Thickness
5688 5689 5688 5682 5667 5653 5657 5671 5682 5687 5691 5699 5702 5701 5699 5699 5700 5700 5716 5725 5727 5727 5727 5726 5727 5727 5728 5729 5730 5730 5730 5731 5730 5731 5731 5731 5731 5731 5730 5730 5730 5730 5729 5729 5728 5728 5727 5727 5726
5680 5681 5676 5665 5650 5642 5653 5668 5675 5683 5690 5695 5696 5697 5695 5696 5703 5707 5712 5719 5722 5722 5722 5722 5722 5723 5724 5724 5725 5726 5726 5727 5727 5727 5727 5727 5727 5727 5727 5727 5727 5726 5726 5725 5725 5724 5724 5723 5723
5673 5672 5660 5650 5643 5643 5655 5667 5672 5680 5686 5687 5685 5688 5689 5691 5698 5703 5709 5713 5715 5715 5716 5717 5717 5718 5719 5720 5721 5721 5722 5723 5723 5723 5723 5724 5724 5724 5724 5723 5723 5723 5722 5721 5721 5720 5720 5720 5719
5663 5656 5649 5640 5642 5651 5660 5667 5670 5673 5677 5680 5678 5676 5683 5691 5695 5699 5704 5706 5708 5708 5710 5711 5712 5713 5713 5714 5716 5717 5718 5718 5719 5719 5719 5720 5720 5720 5720 5719 5719 5719 5718 5717 5717 5716 5716 5716 5715
5652 5643 5635 5631 5639 5650 5658 5664 5667 5666 5668 5671 5670 5668 5674 5685 5691 5694 5696 5699 5700 5701 5702 5704 5706 5707 5708 5709 5711 5712 5713 5714 5714 5715 5715 5716 5716 5716 5716 5715 5715 5714 5714 5714 5713 5713 5713 5712 5712
5637 5632 5622 5623 5634 5647 5653 5659 5660 5659 5661 5664 5664 5662 5668 5678 5682 5685 5688 5691 5692 5694 5695 5696 5698 5700 5702 5703 5705 5707 5708 5709 5710 5710 5711 5711 5712 5712 5711 5711 5710 5710 5710 5710 5709 5709 5709 5709 5709
5628 5622 5619 5624 5629 5637 5648 5653 5652 5653 5655 5658 5662 5657 5663 5670 5675 5678 5680 5683 5684 5686 5687 5688 5691 5693 5696 5697 5699 5701 5703 5704 5705 5705 5706 5706 5707 5707 5706 5706 5706 5706 5706 5706 5705 5705 5705 5705 5705
5625 5618 5618 5619 5625 5633 5643 5646 5650 5650 5651 5658 5659 5653 5656 5665 5669 5671 5673 5674 5676 5678 5680 5682 5684 5686 5689 5692 5694 5696 5698 5699 5699 5700 5701 5701 5701 5701 5701 5701 5701 5701 5701 5701 5701 5702 5701 5701 5701
5623 5608 5608 5618 5623 5630 5637 5639 5644 5649 5648 5650 5653 5655 5659 5661 5662 5662 5663 5665 5667 5670 5672 5675 5678 5680 5683 5686 5688 5690 5692 5693 5694 5695 5695 5696 5696 5696 5696 5696 5696 5697 5697 5697 5697 5698 5698 5697 5697
5612 5601 5612 5623 5627 5628 5632 5634 5636 5638 5638 5640 5645 5649 5653 5653 5653 5653 5654 5657 5659 5662 5666 5669 5672 5675 5677 5680 5682 5684 5686 5688 5689 5690 5691 5691 5691 5690 5690 5691 5691 5692 5692 5692 5693 5693 5693 5693 5693
5611 5607 5615 5622 5626 5627 5627 5629 5632 5629 5629 5634 5637 5642 5645 5645 5646 5647 5649 5653 5655 5658 5661 5664 5668 5670 5673 5674 5676 5679 5681 5682 5684 5685 5686 5686 5685 5685 5685 5685 5686 5686 5687 5687 5688 5688 5688 5689 5689
5609 5612 5616 5619 5623 5623 5623 5624 5625 5626 5630 5636 5638 5639 5640 5639 5639 5641 5644 5647 5650 5652 5656 5659 5663 5665 5668 5669 5672 5674 5676 5678 5679 5680 5681 5681 5680 5680 5680 5680 5680 5681 5681 5682 5683 5683 5683 5684 5684
5607 5611 5615 5617 5618 5620 5620 5619 5619 5623 5629 5632 5633 5633 5633 5634 5636 5637 5640 5641 5645 5648 5651 5654 5658 5660 5662 5665 5667 5669 5672 5673 5674 5675 5676 5676 5675 5675 5675 5675 5675 5675 5676 5677 5678 5678 5678 5679 5679
5606 5608 5609 5612 5614 5616 5614 5614 5614 5620 5623 5625 5625 5627 5628 5630 5632 5632 5634 5637 5641 5644 5647 5650 5653 5656 5658 5661 5662 5664 5667 5668 5669 5669 5670 5671 5671 5670 5670 5670 5670 5670 5671 5672 5672 5673 5673 5673 5674
5604 5601 5603 5607 5610 5611 5610 5606 5611 5618 5618 5618 5620 5623 5624 5626 5628 5629 5631 5634 5638 5639 5642 5645 5649 5651 5654 5656 5658 5659 5661 5663 5664 5664 5664 5665 5666 5666 5665 5665 5665 5665 5666 5667 5667 5667 5668 5668 5669
5597 5592 5591 5602 5605 5606 5602 5599 5611 5615 5613 5612 5614 5617 5620 5621 5623 5626 5629 5631 5633 5634 5636 5640 5644 5646 5649 5651 5653 5654 5656 5657 5658 5658 5659 5660 5660 5660 5660 5660 5660 5660 5661 5662 5662 5661 5661 5662 5662
5583 5579 5584 5594 5600 5600 5596 5597 5608 5611 5610 5609 5610 5613 5616 5617 5620 5622 5625 5627 5628 5629 5631 5634 5638 5641 5644 5647 5648 5647 5649 5651 5651 5652 5653 5654 5655 5655 5655 5655 5655 5655 5655 5656 5656 5656 5655 5655 5655
5576 5575 5581 5586 5594 5593 5590 5593 5603 5606 5606 5606 5607 5608 5610 5613 5616 5619 5621 5622 5623 5626 5628 5630 5633 5635 5638 5640 5640 5641 5642 5644 5644 5646 5646 5647 5648 5649 5649 5649 5649 5649 5649 5649 5649 5649 5649 5649 5648
5580 5578 5578 5585 5591 5588 5588 5591 5599 5602 5602 5601 5602 5604 5606 5609 5612 5614 5616 5618 5619 5621 5623 5625 5626 5628 5630 5631 5631 5633 5634 5636 5637 5638 5639 5640 5641 5642 5642 5643 5642 5642 5642 5642 5642 5642 5641 5641 5641
5576 5574 5574 5580 5586 5584 5584 5588 5596 5598 5600 5601 5602 5602 5603 5606 5608 5611 5612 5612 5613 5614 5615 5619 5620 5621 5623 5625 5626 5627 5628 5628 5630 5630 5632 5633 5634 5635 5635 5635 5635 5635 5635 5634 5635 5635 5634 5633 5634
5572 5571 5571 5574 5578 5580 5580 5584 5591 5597 5598 5599 5599 5602 5603 5605 5605 5606 5608 5607 5608 5607 5610 5614 5615 5616 5617 5619 5619 5619 5620 5620 5620 5621 5623 5625 5626 5627 5628 5628 5628 5628 5628 5628 5628 5628 5627 5626 5626
5566 5573 5572 5571 5565 5563 5572 5565 5585 5590 5592 5594 5594 5595 5598 5601 5602 5602 5601 5601 5602 5603 5604 5607 5609 5610 5611 5612 5613 5612 5611 5611 5612 5613 5615 5616 5618 5619 5620 5621 5620 5621 5621 5621 5621 5621 5620 5620 5618
5565 5569 5567 5566 5561 5557 5562 5558 5574 5582 5585 5589 5590 5591 5592 5593 5595 5596 5597 5597 5597 5598 5599 5600 5602 5603 5604 5604 5604 5604 5603 5603 5603 5605 5606 5607 5609 5610 5611 5612 5612 5613 5613 5614 5614 5614 5613 5613 5612
5562 5559 5557 5550 5547 5549 5560 5555 5566 5573 5583 5587 5587 5586 5587 5588 5589 5590 5590 5590 5590 5590 5591 5592 5593 5594 5595 5594 5594 5595 5595 5595 5594 5596 5596 5597 5599 5600 5601 5603 5604 5605 5605 5606 5606 5606 5605 5605 5604
5552 5543 5535 5536 5534 5546 5558 5555 5564 5577 5581 5583 5583 5581 5581 5582 5583 5583 5583 5583 5583 5583 5583 5584 5586 5586 5587 5587 5586 5587 5588 5587 5587 5587 5589 5589 5589 5591 5592 5594 5595 5597 5597 5597 5598 5597 5596 5596 5596
5542 5540 5531 5531 5531 5536 5546 5548 5562 5573 5576 5577 5577 5576 5575 5574 5575 5576 5576 5575 5575 5576 5575 5576 5576 5577 5577 5577 5578 5578 5579 5579 5579 5580 5581 5581 5582 5583 5584 5585 5586 5588 5589 5589 5588 5588 5588 5588 5587
5536 5530 5532 5523 5522 5523 5534 5546 5559 5568 5567 5567 5566 5566 5566 5566 5567 5567 5567 5567 5567 5567 5567 5567 5567 5567 5568 5568 5568 5569 5570 5571 5572 5572 5572 5572 5572 5573 5574 5575 5576 5577 5579 5579 5578 5579 5579 5579 5579
5533 5528 5515 5514 5518 5523 5533 5538 5544 5554 5556 5556 5556 5555 5555 5557 5557 5558 5558 5558 5558 5558 5558 5558 5559 5559 5559 5559 5559 5560 5561 5562 5563 5563 5563 5563 5563 5564 5564 5564 5565 5566 5568 5569 5568 5569 5569 5569 5570
5520 5518 5513 5505 5505 5509 5515 5532 5547 5546 5547 5545 5545 5546 5546 5547 5547 5547 5548 5548 5548 5548 5548 5548 5548 5549 5549 5549 5549 5550 5550 5552 5553 5554 5554 5554 5554 5554 5554 5554 5555 5556 5557 5558 5558 5559 5559 5559 5560
5515 5514 5505 5498 5497 5493 5494 5519 5542 5538 5538 5537 5536 5537 5537 5536 5536 5536 5536 5536 5536 5536 5537 5537 5538 5538 5538 5538 5538 5539 5540 5541 5543 5544 5544 5544 5543 5543 5543 5543 5544 5545 5546 5548 5549 5549 5549 5549 5549